星链-36386(STARLINK-36386)

导读

STARLINK-36386(NORAD编号68612)是SpaceX星链(Starlink)低轨互联网星座中的一颗卫星,归属SpaceX的Starlink项目。 作为星链星座组成单元,它运行于近地轨道,是SpaceX全球卫星互联网组网的一部分,承担为全球偏远地区、海洋与航空等场景提供低时延宽带互联网接入的功能,助力填补全球网络覆盖空白。2026年SpaceX启动将星链卫星轨道高度从550公里降至480公里的安全优化计划,该卫星所属星座批次大概率纳入此次轨道调整,以降低太空碰撞风险,减少空间碎片隐患。

基本信息
目录编号:
68612
目录名称:
STARLINK-36386
国际标识:
2026-073L
轨道中心:
EARTH
卫星名称:
星链-36386
卫星全名:
星链-36386(STARLINK-36386)
卫星状态:
在轨 (已飞行152 天)
发射日期:
2026-04-05 UTC
国别 :
美国 (US)
星等 :
--
轨道信息
数据来源 国际轨道数据 AOE轨道数据
星历时间 2026-09-03T20:05:46+0800
18小时前
查看轨道信息
2026-09-03T22:00:00+0800
16小时前
查看轨道信息
半长轴 6843.662km 6843.695km
偏心率 0.0001932 0.0001606
轨道倾角 97.287° 97.285°
近地点辐角 94.683° 92.913°
升交点赤经 84.727° 84.803°
平近点角 265.463° 344.885°
近地点 464.202km 464.458km
远地点 466.848km 466.658km
周期 93.906分钟 93.907分钟
每日圈数 15.334512 15.334401
详细信息
固有亮度:
5
最大亮度:
2.5
卫星平台:
Starlink V1.0
覆盖范围:
全球
运营商:
太空探索技术公司
运营商所在国:
美国
制造商(研发单位):
太空探索技术公司
制造商所在国:
美国
使用方式:
暂无
卫星简介
Starlink 计划是 SpaceX 推出的全球卫星互联网项目,通过发射低轨道卫星,为全球尤其是偏远地区提供高速、低延迟的互联网服务。自 2019 年起,Starlink 已部署数千颗卫星,旨在缩小全球数字鸿沟,推动互联网普及。该项目还为军事、航空等行业提供通信支持,带来广泛经济效益。
2D轨道图
3D轨道图
轨道高度分析图
轨道倾角分析图
轨道综合分析图
查看轨道综合分析图
交会数据列表
事件ID 空间交会对象 最接近时刻(TCA) 交会距离 交会风险概率(CRP) 交会风险指数(CRI) 操作
CDM_260904-031204-607906-861221
2026-09-04T
03:12:23+0000
2.888 km
极远距离
1.215594E-6 低风险 0.37
CDM_260904-184905-253506-861221
2026-09-04T
18:49:18+0000
2.722 km
极远距离
1.083125E-6 低风险 0.36